Back to catalog

BEIJING-3C 03

AliveScienceSSO
NORAD 59807·PAYLOAD·🇨🇳 China
This satellite name has not been confirmed by official sources yet.

Launched May 20, 2024 from Taiyuan Satellite Launch Center

Loading…

Next Passes (next 24 hours)

TLE

FreshSource: Space-Track

Epoch: Sep 14, 2026, 14:40 UTC

1 59807U 24094C   26257.61133347  .00004908  00000-0  25235-3 0  9999
2 59807  97.3841 326.5302 0002189  62.0233 298.1222 15.16904944128718

Track BEIJING-3C 03 in real time with AllMySat

Download on the App Store